Regional Weather Roundup
Issued by NWS Upton, NY

Home | Current Version | Previous Version | Text Only | Print | Product List | Glossary On
Versions: 1 2 3 4 5 6 7 8 9 10 11 12 13 14 15 16 17 18 19 20 21 22 23 24 25 26 27 28 29 30 31 32 33 34 35 36 37 38 39 40 41 42 43 44 45 46 47 48 49 50
000
ASUS41 KOKX 281205
RWROKX

REGIONAL WEATHER ROUNDUP
NATIONAL WEATHER SERVICE NEW YORK NY
700 AM EST FRI NOV 28 2014

NOTE: "FAIR" INDICATES FEW OR NO CLOUDS BELOW 12,000 FEET WITH NO
SIGNIFICANT WEATHER AND/OR OBSTRUCTIONS TO VISIBILITY.

NYZ071-072-176-178-NJZ106-104-281300-
NEW YORK CITY METRO AREA


CITY           SKY/WX    TMP DP  RH WIND       PRES   REMARKS
CENTRAL PARK   CLEAR     31  21  66 NW8       30.15R WCI  23
LAGUARDIA APRT PTCLDY    32  24  72 NW17G25   30.13R WCI  21
KENNEDY INTL   PTCLDY    32  21  64 NW12      30.14R WCI  23
NEWARK/LIBERTY MOCLDY    29  23  78 W3        30.15R
BRNX BOT. GARD   N/A    N/A N/A N/A NW6       30.13R
TETERBORO      CLEAR     29  22  75 CALM      30.13R
$$

NYZ177-179-078>081-281300-
LONG ISLAND NEW YORK

CITY           SKY/WX    TMP DP  RH WIND       PRES   REMARKS
FARMINGDALE    CLEAR     32  22  66 NW9       30.12R WCI  24
ISLIP          PTCLDY    31  22  69 NW12      30.09R WCI  22
SHIRLEY        CLEAR     30  24  78 NW6       30.10R WCI  24
WESTHAMPTON    PTCLDY    33  24  69 NW12G18   30.10R WCI  24
MONTAUK POINT    N/A     35  26  69 NW15G22   30.06R WCI  25
$$

NYZ052-065-067-281300-
HUDSON VALLEY

CITY           SKY/WX    TMP DP  RH WIND       PRES   REMARKS
WHITE PLAINS   PTCLDY    29  22  75 NW9       30.09R WCI  20
NEWBURGH       PTCLDY    23  21  93 NW9       30.11R WCI  13
MONTGOMERY     PTCLDY    25  20  81 W3        30.11R
POUGHKEEPSIE   MOCLDY    20  17  88 CALM      30.12R
ALBANY         MOCLDY    27  21  78 W10       30.10R WCI  17
$$

NJZ001-105-106-008-010-013-015-019>022-104-281300-
NEW JERSEY

CITY           SKY/WX    TMP DP  RH WIND       PRES   REMARKS
NEWARK/LIBERTY MOCLDY    29  23  78 W3        30.15R
TETERBORO      CLEAR     29  22  75 CALM      30.13R
CALDWELL       CLEAR     25  20  81 CALM      30.14R
MORRISTOWN     PTCLDY    30  27  86 NW5       30.14R WCI  25
SOMERVILLE     MOCLDY    26  23  88 CALM      30.13R
SUSSEX         PTCLDY    21  18  88 CALM      30.12R
ANDOVER          N/A     28  23  81 N5        30.13R WCI  23
TRENTON        CLEAR     29  23  78 CALM      30.15R
MILLVILLE      CLEAR     29  22  75 W7        30.19R WCI  22
ATLANTIC CITY  CLEAR     30  25  81 W7        30.17R WCI  23
WRIGHTSTOWN    CLEAR     30  24  77 NW6       30.13R WCI  24
TOMS RIVER     PTCLDY    28  27  93 CALM      30.16R
BELMAR         CLEAR     28  21  74 W7        30.13R WCI  21
$$

PAZ047>061-062-071-281300-
EASTERN PENNSYLVANIA

CITY           SKY/WX    TMP DP  RH WIND       PRES   REMARKS
PHILADELPHIA   PTCLDY    32  22  66 W10       30.19R WCI  24
ALLENTOWN      CLOUDY    28  22  78 SW5       30.15R WCI  23
SCRANTON       PTCLDY    27  22  81 N9        30.14R WCI  18
$$

CTZ002-004>006-009-010-012-RIZ004-006-007-MAZ004-011-015-281300-
SOUTHERN NEW ENGLAND
 IN CT

CITY           SKY/WX    TMP DP  RH WIND       PRES   REMARKS
BRADLEY INTL   MOCLDY    31  23  72 NW8       30.05S WCI  23
HARTFORD       CLOUDY    31  24  75 W8        30.08R WCI  23
DANBURY        CLEAR     25  19  78 W3        30.11R
WTRBRY/OXFORD  PTCLDY    27  18  69 NW7       30.07R WCI  19
BRIDGEPORT     CLEAR     29  24  82 NW10      30.10R WCI  20
MERIDEN        PTCLDY    29  21  72 NW6       30.09R WCI  23
NEW HAVEN      PTCLDY    33  24  69 NW7       30.09R WCI  27
CHESTER        PTSUNNY   30  27  86 NW8       30.06R WCI  23
GROTON         FLURRIES  29  26  89 NW12      30.05R WCI  19
WILLIMANTIC    MOCLDY    30  24  78 CALM      30.06R

 IN RI

CITY           SKY/WX    TMP DP  RH WIND       PRES   REMARKS
PROVIDENCE     FLURRIES  31  25  78 NW12      30.03R WCI  22
BLOCK ISLAND   MOCLDY    34  23  64 NW12G22   30.02R WCI  25
WESTERLY       PTCLDY    30  25  81 NW8       30.05R WCI  22

 IN MA

CITY           SKY/WX    TMP DP  RH WIND       PRES   REMARKS
BOSTON         FLURRIES  29  26  89 NW13      30.03R WCI  19
WORCESTER      CLOUDY    25  21  85 NW13      29.99R WCI  14
WESTFIELD      CLOUDY    30  24  78 NW3       30.05S
PROVINCETOWN   CLOUDY    37  34  87 N13       29.96R WCI  29
NANTUCKET      CLOUDY    37  33  85 NW13      29.95R WCI  29
$$

ANZ330-335-338-340-345-350-353-355-281300-
COASTAL MARINE OBSERVATIONS


STATION/POSITION TIME  SKY/WX   TEMP    WIND        PRES    VSBY  WAVE
                                AIR SEA DIR/SP/G                  HT/PER
                 (UTC)          (F)     (DEG/KT/KT) (MB)    (MI)  (FT/S)
NY HARB ENTRANCE 1200            37 54  310/ 21/ 25 1020.1          3/ 4
4S FIRE IS       1200               52                N/A           3/ 9
20S FIRE ISLAND  1200            38 53  320/ 23/ 29 1018.7          5/ 5
23SW MTP         1200                                 N/A           5/ 4
HUDSON CANYON    1200            40 58  320/ 25/ 29 1017.8          8/ 7
EXECUTION ROCKS  1200            34 47  320/ 12/ 17   N/A
WESTERN LI SOUND 1200            34     310/ 14/ 17   N/A           0
CENTRAL LI SOUND 1100            34 50  300/ 19/ 23   N/A           3/ 3
EASTERN LI SOUND 1100            34 52  320/ 14/ 17   N/A
ROBBINS REEF     1200            32     310/ 11/ 14 1019.2
$$


>>>>>>>>>>>>>>>>>>>>>>>>>>>> KEY <<<<<<<<<<<<<<<<<<<<<<<<<<<
>                                                          <
>     SKY/WX - SKY CONDITION/PRESENT WEATHER               <
>     TMP    - TEMPERATURE IN FAHRENHEIT                   <
>     DP     - DEWPOINT IN FAHRENHEIT                      <
>     RH     - RELATIVE HUMIDITY IN PERCENT                <
>     WIND   - DIRECTION AND SPEED IN MPH                  <
>     PRES   - MEAN SEA LEVEL PRESSURE IN INCHES OF HG     <
>     WCI    - WIND CHILL INDEX                            <
>     VSB    - VISIBILITY IN MILES                         <
>     HX     - HEAT INDEX                                  <
>     TC     - TEMPERATURE IN CELSIUS                      <
>     VRB    - VARIABLE WIND DIRECTION                     <
>                                                          <
>>>>>>>>>>>>>>>>>>>>>>>>>>>> KEY <<<<<<<<<<<<<<<<<<<<<<<<<<<





USA.gov is the U.S. government's official web portal to all federal, state and local government web resources and services.